Regional Weather Roundup
Issued by NWS

Home | Current Version | Previous Version | Text Only | Print | Product List | Glossary On
Versions: 1 2 3 4 5 6 7 8 9 10 11 12 13 14 15 16 17 18 19 20 21 22 23 24 25 26 27 28 29 30 31 32 33 34 35 36 37 38 39 40 41 42 43 44 45 46 47 48 49 50
000
ASUS45 KTFX 241010
RWRMT
MONTANA REGIONAL WEATHER ROUNDUP
NATIONAL WEATHER SERVICE GREAT FALLS MT
400 AM MDT SUN MAY 24 2015

NOTE: "FAIR" INDICATES FEW OR NO CLOUDS BELOW 12000 FEET WITH NO
SIGNIFICANT WEATHER AND/OR OBSTRUCTIONS TO VISIBILITY.

MTZ001>007-043-241100-
WEST OF THE DIVIDE

CITY           SKY/WX    TMP DP  RH WIND       PRES   REMARKS
KALISPELL      SUNNY     38  36  92 NW3       30.06S
MISSOULA       CLOUDY    48  43  82 W5        30.08S
BUTTE          CLOUDY    46  41  82 W3        30.10F
MULLAN PASS    PTCLDY    47  34  60 SE7       30.12F
DEER LODGE       N/A     46  43  87 W6        30.13F
EUREKA           N/A     43  34  70 N3        30.08R
HAMILTON         N/A     54  45  71 SE3       30.06F
LIBBY            N/A     45  37  76 CALM      30.07R
RONAN            N/A     44  39  82 CALM      30.09F
$$

MTZ008-052>055-241100-
SOUTHWEST MONTANA

CITY           SKY/WX    TMP DP  RH WIND       PRES   REMARKS
BOZEMAN        CLOUDY    47  45  93 N5        30.07F
DILLON         PTCLDY    45  42  89 E7        30.06S
W YELLOWSTONE  PTCLDY    32  32 100 CALM      30.05F
THREE FORKS      N/A     49  29  46 CALM      30.06S
TWIN BRIDGES     N/A     49  41  74 N10       30.03F
$$

MTZ009-010-012-014-046-048-049-054-241100-
EAST SLOPES AND CENTRAL MONTANA

CITY           SKY/WX    TMP DP  RH WIND       PRES   REMARKS
CUT BANK       CLOUDY    44  42  93 NW3       30.13S
GREAT FALLS    FOG       44  43  96 SW3       30.10S VSB 1/2
MALMSTROM AFB  FOG       43  43 100 SW3       30.10F VSB 5/8
HELENA         MOCLDY    49  43  80 W6        30.07F
CONRAD           N/A     47  47 100 CALM      30.12F
$$

MTZ011-013-016-021-045-047-050-051-241100-
NORTH CENTRAL MONTANA

CITY           SKY/WX    TMP DP  RH WIND       PRES   REMARKS
HAVRE          CLEAR     44  40  85 CALM      30.10F
LEWISTOWN      CLOUDY    43  40  89 SE3       30.09F
N BAR RANCH    CLOUDY    46  45  93 CALM      30.11S
CHINOOK          N/A     43  43 100 CALM      30.10F
FORT BENTON      N/A     48  46  93 CALM      30.10F VSB 1
$$

MTZ017>020-022>027-061-062-241100-
NORTHEAST MONTANA

CITY           SKY/WX    TMP DP  RH WIND       PRES   REMARKS
GLASGOW        CLEAR     46  39  76 NE7       30.08S
JORDAN           N/A     50  46  86 NW3       30.07S
SIDNEY         CLOUDY    48  45  87 CALM      30.09S
WOLF POINT     PTCLDY    42  39  89 CALM      30.08F
MALTA            N/A     42  37  82 CALM      30.05F
PLENTYWOOD       N/A     50  37  62 CALM      30.08F
POPLAR           N/A     43  41  93 CALM      30.08F
SCOBEY           N/A     40  31  70 E2        30.07F
$$

MTZ028>42-056>058-241100-
SOUTHCENTRAL AND SOUTHEAST MONTANA

CITY           SKY/WX    TMP DP  RH WIND       PRES   REMARKS
BAKER          PTCLDY    45  44  97 E3        30.06F
BILLINGS       CLOUDY    49  44  83 N9        30.05F
LIVINGSTON     CLOUDY    49  46  90 E9        30.05F
MILES CITY     CLOUDY    52  50  93 NE9       30.04F
BIG TIMBER       N/A     48  46  93 NE5       30.08S
EKALAKA          N/A     47  44  89 E2        30.02F
FORSYTH          N/A     52  52 100 NE6       30.04S
LAUREL           N/A     48  40  74 N1        30.04S
ROUNDUP          N/A     48  43  83 CALM      29.98S
$$

REGIONAL REPORTS...DAKOTAS

CITY           SKY/WX    TMP DP  RH WIND       PRES   REMARKS
WILLISTON      PTCLDY    45  41  86 CALM      30.08F
MINOT          PTCLDY    48  44  86 CALM      30.08F
DICKINSON      CLOUDY    48  46  93 NE5       30.05F
BEACH          FOG       39  39 100 CALM      30.09S VSB 1/4
CROSBY         FAIR      46  46 100 S6        30.09F
WATFORD CITY   FAIR      45  41  87 CALM      30.07S
BISMARCK       MOCLDY    55  51  86 NE3       30.07F
GRAND FORKS    CLEAR     47  43  86 CALM      30.08F
FARGO          PTCLDY    52  47  83 CALM      30.08S
BUFFALO SD       N/A     51  49  92 NE8       29.97F
RAPID CITY     LGT RAIN  53  52  96 E10       29.97F
$$

REGIONAL REPORTS...WYOMING/IDAHO/WASHINGTON

CITY           SKY/WX    TMP DP  RH WIND       PRES   REMARKS
GILLETTE       LGT RAIN  49  48  97 N7        29.97F
SHERIDAN       CLOUDY    49  47  93 N8        30.01F
BUFFALO WY     FOG       47  46  97 N13G24    30.01F VSB 1/4
CODY           CLOUDY    46  41  81 N8        30.03S
YELLOWSTONE LA   N/A     35  32  88 CALM      30.08S
IDAHO FALLS    MOCLDY    45  43  93 CALM      29.98F
SALMON         CLOUDY    48  45  87 SE3       30.03S
BOISE          LGT RAIN  58  50  75 E9        29.93F
SPOKANE        PTCLDY    61  51  70 CALM      30.02R
$$

REGIONAL REPORTS...ALBERTA

CITY           SKY/WX    TMP DP  RH WIND       PRES   REMARKS
EDMONTON       CLEAR     50  37  62 NE3       30.04S
CALGARY        PTCLDY    48  34  57 S2        30.10S
LETHBRIDGE     CLEAR     41  36  81 W2        30.10F
MEDICINE HAT   CLEAR     45  36  70 S3        30.11F
$$

REGIONAL REPORTS...SASKATCHEWAN

CITY           SKY/WX    TMP DP  RH WIND       PRES   REMARKS
SWIFT CURRENT  PTCLDY    48  34  57 SW9       30.11S
REGINA         PTCLDY    45  37  76 S3        30.08F
SASKATOON      PTCLDY    48  37  66 SW5       30.07F
$$



USA.gov is the U.S. government's official web portal to all federal, state and local government web resources and services.